STARLINK-32581 (62184 NORAD) Tracking and Keplerian Element Data

This shows tracking and keplerian element data for the satellite.

Feedback or suggestion? Click here.




ElementValue
Catalog62184
NameSTARLINK-32581
Epoch Orbit1009
Epoch Day34.56221792
Epoch Year2025
RAAN90.6326
Inclination69.9994
Eccentricity0.0002713
Argument of Perigee257.9545
Mean Anonmoly102.133
Mean Motion15.38318787
Decay Rate7.167E-05
L11 62184U 24225X 25034.56221792 .00007167 00000+0 19271-3 0 9997
L22 62184 69.9994 90.6326 0002713 257.9545 102.1330 15.38318787 10096



Live tracking and technical data element details for STARLINK-32581 (NORAD 62184). STARLINK-32581 can be tracked NOW for your location showing map with azimuth and elevation plus other details from your city location.







IsCatalogInMostPopularTable: catalog: 62184, numindb: 11
Update: records affected: 1



GetName: 62184 STARLINK-32581

Hit Count: updated at: Sun, 18 May 2025 23:13:48 GMT